Showing default

LILACSAT 2, 40908

Orbit data source: Space-Track

LILACSAT 2, 40908 is a payload satellite owned by Harbin (CN) in SSO that was launched on Sat, 19 Sep 2015 UTC via a CHANG ZHENG 6 launch vehicle from the Taiyaun Space Center, China (TSC). Payload-class satellites include a variety of spacecraft equipped with specific instruments for various scientific and technological missions. These include communications satellites like Starlink; space stations such as the ISS; scientific satellites like the Hubble; Earth observation satellites from companies like Planet Labs, Umbra, and HawkEye 360; GPS; miniature CubeSats for education and research; and military/defense satellites.

Loading next visibility...
Identifier
40908, 2015-049K
Orbit
SSO
Country
Flag of CNCN / PRC
Related business
Manufacturer
Harbin
Mission
Operational Amateur Com/Tech
Bus & Motor
CAS-3H, Unknown motor
Mass
11 kg wet, 11 kg dry
Launch date (UTC)
2015-09-19 (10 years ago)
Launch vehicle
CHANG ZHENG 6
Launch site
Taiyaun Space Center, China (TSC)
Object type
Payload
Rocket body
Debris
Shape & HBR
Box, 0.1 m
Radar Cross Section
0.060 m², Small (<0.1 m²)

Expand to show TLE details & history
Last TLE update: 8 hours ago

TLE from 8 hours ago
0 LILACSAT 2
1 40908U 15049K   26061.85620057  .00020066  00000-0  38883-3 0  9995
2 40908  97.4817  94.8443 0005596 279.9056  80.1562 15.47723029579287
Epoch: 2026-03-02T20:32Z
TLE epoch observation values (Epoch: 2026-03-02T20:32:55.729Z)
Latitude
-0.00002°
Longitude
-14.03151°
Altitude
425.866 km
Speed
7.656 km/s
True Right ascension
06h 19m 22s
True Declination
0° 00' 00"
Sunlit
Object was in full shadow at epoch
Visualization orbit readout
Latitude
Unknown
Longitude
Unknown
Altitude
Unknown
Speed
Unknown
Apparent Right ascension
Unknown
Apparent Declination
Unknown
Sunlit
N/A
Visualization observer readout
Local Sidereal Time
08:06:09
Azimuth
Unknown
Elevation
Unknown
Doppler factor
Unknown
Orbital elements
Apogee altitude
424.125 km
Perigee altitude
416.517 km
Semi-major axis
6,798.458 km
Eccentricity
0.00056
Inclination
97.4817°
RAAN
94.8443°
Arg. of periapsis
279.9056°
True anomaly
80.21939°
Mean anomaly
80.1562°
Eccentric anomaly
80.18779°
Mean motion
3.87193 °/min
Orbital period
92.98 mins
BSTAR
0.00038883
Loading maneuver chart data...
Computing Atmospheric mass density...
Loading historical data...
Loading historical data...
Loading historical data...
Loading historical data...
Loading historical data...
Loading historical data...
Loading historical data...

Documentation

Showing up to 5 results
|